Terminal Aerodrome Forecast
Issued by NWS

Home | Current Version | Previous Version | Text Only | Print | Product List | Glossary On
Versions: 1 2 3 4 5 6 7 8 9 10 11 12 13 14 15 16 17 18 19 20 21 22 23 24 25
000
FTUS45 KRIW 062149 AAA
TAFPNA
TAF AMD
KPNA 062149Z 0622/0718 33012KT P6SM VCTS SCT020CB BKN060
      TEMPO 0623/0701 VRB20G30KT 4SM -TSRA OVC022CB
     FM070200 09008KT 6SM -RA SCT020 BKN035
     FM070800 30006KT 4SM -RA SCT010 BKN020
      AMD LTD TO CLD VIS AND WIND=

USA.gov is the U.S. government's official web portal to all federal, state and local government web resources and services.